Location: Bangkok
(13.7500°N, 100.5170°E)
Time: 14:33:57
(UTC+07:00)

HST - Visible Passes

Search period start: 17 September 2014 00:00
Search period end: 27 September 2014 00:00
Orbit: 547 x 551 km, 28.5° (Epoch: 16 September)

Date Brightness Start Highest point End Pass type
(mag) Time Alt. Az. Time Alt. Az. Time Alt. Az.
17 Sep 1.9 19:57:21 10° NW 20:00:18 36° NNW 20:00:18 36° NNW visible
18 Sep 1.2 19:50:15 10° WNW 19:53:50 57° NNW 19:53:50 57° NNW visible
19 Sep 0.6 19:43:13 10° WNW 19:47:24 87° SSW 19:47:26 87° S visible
20 Sep 1.1 19:36:16 10° WNW 19:40:23 59° SSW 19:41:07 50° SSE visible
21 Sep 1.8 19:29:26 10° W 19:33:21 39° SSW 19:34:52 28° SSE visible
22 Sep 2.5 19:22:44 10° W 19:26:17 27° SSW 19:28:42 16° SSE visible
23 Sep 3.1 19:16:16 10° WSW 19:19:14 19° SSW 19:22:11 10° SSE visible
24 Sep 3.5 19:10:17 10° WSW 19:12:10 13° SSW 19:14:03 10° S visible
